Flag for Greenland Weather past 2 weeks in Ilulissat, Greenland

Now
39 °F

Broken clouds.


Feels Like: 36 °F
Forecast: 39 / 43 °F
Wind: 5 mph from North

Location: Jacobshavn Lufthavn

Current Time: Aug 22, 2014 at 6:06:05 PM

Latest Report: Aug 22, 2014 at 4:50 PM


Visibility: N/A

Pressure: 30.01 "Hg

Humidity: 93%

Dew point: 37 °F

Location of IlulissatLocation

Historic Weather in Ilulissat — Graph

°F

Ilulissat temperature yesterday

Maximum temperature yesterday: 48 °F (at 12:50 AM)
Minimum temperature yesterday: 43 °F (at 5:50 AM)
Average temperature yesterday: 44 °F

Past Weeks' High & Low Weather Summary

 TemperatureHumidityPressure
High59 °F (Aug 12, 12:50 PM)100% (Aug 9, 9:50 PM)30.24 "Hg (Aug 9, 9:50 PM)
Low32 °F (Aug 11, 3:50 AM)29% (Aug 12, 12:50 PM)29.59 "Hg (Aug 12, 2:50 PM)
Average46 °F82%30.05 "Hg
* Reported Aug 7 4:50 PM — Aug 22 4:50 PM, Ilulissat, Weather by CustomWeather, © 2014

Note: Actual official high and low records may vary slightly from our data, if they occured in-between our weather recording intervals... More about our weather records

Advertising

Ilulissat weather history for previous 24 hours

 ConditionsComfort  
Time TempWeatherWind HumidityBarometerVisibility
4:50 PM
Aug 22
39 °FBroken clouds.5 mph93%30.01 "HgN/A
3:50 PM43 °FLight rain. Broken clouds.5 mph87%30.01 "HgN/A
2:50 PM45 °FBroken clouds.6 mph87%30.04 "HgN/A
1:50 PM45 °FLight rain. Broken clouds.3 mph87%30.04 "HgN/A
12:50 PM46 °FLight rain. Broken clouds.5 mph87%30.04 "HgN/A
11:50 AM45 °FFog.9 mph93%30.07 "HgN/A
10:50 AM43 °FSleet. Partly sunny.10 mph93%30.07 "HgN/A
9:50 AM43 °FFog.8 mph100%30.07 "Hg1 mi
8:50 AM43 °FFog.8 mph93%30.07 "Hg1 mi
7:50 AM43 °FFog.7 mph93%30.07 "HgN/A
6:50 AM43 °FDrizzle. Fog.5 mph93%30.09 "Hg2 mi
5:50 AM43 °FFog.5 mph100%30.09 "Hg2 mi
4:50 AM43 °FFog.No wind93%30.09 "Hg1 mi
3:50 AM43 °FFog.No wind93%30.09 "Hg2 mi
2:50 AM43 °FFog.No wind100%30.09 "Hg1 mi
1:50 AM43 °FFog.No wind100%30.12 "Hg1 mi
12:50 AM43 °FMostly cloudy.No wind100%30.12 "Hg3 mi
11:50 PM
Aug 21
43 °FOvercast.No wind100%30.15 "HgN/A
10:50 PM43 °FFog.No wind100%30.15 "Hg2 mi
9:50 PM43 °FFog.No wind100%30.18 "Hg1 mi
8:50 PM43 °FFog.1 mph100%30.18 "Hg2 mi
7:50 PM45 °FFog.2 mph93%30.18 "Hg2 mi
6:50 PM45 °FBroken clouds.5 mph93%30.18 "HgN/A
6:20 PM45 °FFog.2 mph100%30.18 "Hg1 mi
Weather by CustomWeather, © 2014

See weather overviewHow to use our weather pages